TimeEST,TemperatureF,Dew PointF,Humidity,Sea Level PressureIn,VisibilityMPH,Wind Direction,Wind SpeedMPH,Gust SpeedMPH,PrecipitationIn,Events,Conditions,WindDirDegrees,DateUTC
12:12 AM,33.8,30.2,87,30.01,10.0,Calm,Calm,-,N/A,,Scattered Clouds,0,2013-01-01 05:12:00
12:33 AM,33.8,30.2,87,30.01,10.0,Calm,Calm,-,N/A,,Scattered Clouds,0,2013-01-01 05:33:00
12:54 AM,33.8,28.4,81,30.00,10.0,Calm,Calm,-,N/A,,Scattered Clouds,0,2013-01-01 05:54:00
1:18 AM,32.0,30.2,93,30.01,10.0,SSW,3.5,-,N/A,,Scattered Clouds,200,2013-01-01 06:18:00
1:39 AM,32.0,28.4,87,30.01,10.0,Calm,Calm,-,N/A,,Scattered Clouds,0,2013-01-01 06:39:00
2:00 AM,32.0,28.4,87,30.01,10.0,Calm,Calm,-,N/A,,Scattered Clouds,0,2013-01-01 07:00:00
2:21 AM,32.0,28.4,87,30.02,10.0,Calm,Calm,-,N/A,,Clear,0,2013-01-01 07:21:00
2:42 AM,32.0,28.4,87,30.02,10.0,Calm,Calm,-,N/A,,Clear,0,2013-01-01 07:42:00
3:03 AM,32.0,28.4,87,30.01,10.0,Calm,Calm,-,N/A,,Scattered Clouds,0,2013-01-01 08:03:00
3:24 AM,32.0,28.4,87,30.01,10.0,Calm,Calm,-,N/A,,Clear,0,2013-01-01 08:24:00
3:45 AM,32.0,28.4,87,30.00,10.0,Calm,Calm,-,N/A,,Clear,0,2013-01-01 08:45:00
4:06 AM,30.2,28.4,93,30.01,10.0,SSW,3.5,-,N/A,,Clear,210,2013-01-01 09:06:00
4:27 AM,30.2,28.4,93,29.99,10.0,Calm,Calm,-,N/A,,Clear,0,2013-01-01 09:27:00
4:48 AM,32.0,28.4,87,30.00,10.0,West,4.6,-,N/A,,Scattered Clouds,280,2013-01-01 09:48:00
5:12 AM,32.0,28.4,87,29.99,10.0,Calm,Calm,-,N/A,,Mostly Cloudy,0,2013-01-01 10:12:00
5:30 AM,32.0,30.2,93,30.00,10.0,West,4.6,-,N/A,,Scattered Clouds,260,2013-01-01 10:30:00
5:54 AM,32.0,30.2,93,29.99,10.0,SW,3.5,-,N/A,,Scattered Clouds,230,2013-01-01 10:54:00
6:15 AM,33.8,30.2,87,29.99,10.0,Calm,Calm,-,N/A,,Scattered Clouds,0,2013-01-01 11:15:00
6:36 AM,33.8,30.2,87,30.01,10.0,West,4.6,-,N/A,,Clear,270,2013-01-01 11:36:00
6:57 AM,33.8,30.2,87,30.01,10.0,Calm,Calm,-,N/A,,Scattered Clouds,0,2013-01-01 11:57:00
7:18 AM,33.8,30.2,87,30.01,10.0,Calm,Calm,-,N/A,,Clear,0,2013-01-01 12:18:00
7:39 AM,33.8,30.2,87,30.00,10.0,Calm,Calm,-,N/A,,Clear,0,2013-01-01 12:39:00
8:00 AM,33.8,30.2,87,30.00,10.0,WNW,3.5,-,N/A,,Clear,290,2013-01-01 13:00:00
8:21 AM,33.8,30.2,87,30.00,10.0,WNW,3.5,-,N/A,,Clear,290,2013-01-01 13:21:00
8:42 AM,35.6,30.2,81,30.01,10.0,WNW,5.8,-,N/A,,Clear,300,2013-01-01 13:42:00
9:03 AM,37.4,32.0,81,29.99,10.0,WNW,3.5,-,N/A,,Clear,300,2013-01-01 14:03:00
9:27 AM,41.0,30.2,65,30.00,10.0,NW,5.8,-,N/A,,Mostly Cloudy,310,2013-01-01 14:27:00
9:48 AM,41.0,30.2,65,30.01,10.0,West,3.5,-,N/A,,Mostly Cloudy,270,2013-01-01 14:48:00
10:09 AM,42.8,28.4,57,30.01,10.0,WNW,6.9,-,N/A,,Scattered Clouds,290,2013-01-01 15:09:00
10:30 AM,42.8,28.4,57,30.01,10.0,NW,5.8,-,N/A,,Mostly Cloudy,310,2013-01-01 15:30:00
10:51 AM,42.8,28.4,57,30.00,10.0,NW,8.1,-,N/A,,Mostly Cloudy,320,2013-01-01 15:51:00
11:12 AM,42.8,28.4,57,30.01,10.0,WNW,8.1,-,N/A,,Mostly Cloudy,300,2013-01-01 16:12:00
11:33 AM,42.8,28.4,57,29.98,10.0,WNW,8.1,-,N/A,,Mostly Cloudy,300,2013-01-01 16:33:00
11:54 AM,42.8,28.4,57,29.97,10.0,West,5.8,-,N/A,,Mostly Cloudy,270,2013-01-01 16:54:00
12:15 PM,42.8,28.4,57,29.98,10.0,WNW,5.8,-,N/A,,Scattered Clouds,290,2013-01-01 17:15:00
12:36 PM,44.6,28.4,53,29.97,10.0,WNW,8.1,-,N/A,,Mostly Cloudy,300,2013-01-01 17:36:00
12:57 PM,44.6,28.4,53,29.94,10.0,NW,6.9,-,N/A,,Overcast,320,2013-01-01 17:57:00
1:18 PM,42.8,28.4,57,29.94,10.0,WNW,8.1,-,N/A,,Mostly Cloudy,290,2013-01-01 18:18:00
1:39 PM,42.8,28.4,57,29.93,10.0,West,5.8,-,N/A,,Overcast,280,2013-01-01 18:39:00
2:00 PM,42.8,28.4,57,29.93,10.0,WNW,5.8,-,N/A,,Overcast,300,2013-01-01 19:00:00
2:24 PM,42.8,28.4,57,29.95,10.0,NW,5.8,-,N/A,,Overcast,310,2013-01-01 19:24:00
2:45 PM,42.8,28.4,57,29.94,10.0,WNW,5.8,-,N/A,,Overcast,300,2013-01-01 19:45:00
3:06 PM,42.8,28.4,57,29.95,10.0,NW,6.9,-,N/A,,Overcast,310,2013-01-01 20:06:00
3:27 PM,42.8,28.4,57,29.96,10.0,NW,5.8,-,N/A,,Overcast,310,2013-01-01 20:27:00
3:48 PM,42.8,28.4,57,29.95,10.0,NW,5.8,-,N/A,,Overcast,310,2013-01-01 20:48:00
4:09 PM,41.0,28.4,61,29.96,10.0,NW,3.5,-,N/A,,Mostly Cloudy,310,2013-01-01 21:09:00
4:30 PM,41.0,28.4,61,29.97,10.0,NW,5.8,-,N/A,,Mostly Cloudy,310,2013-01-01 21:30:00
4:51 PM,41.0,28.4,61,29.97,10.0,NW,4.6,-,N/A,,Overcast,310,2013-01-01 21:51:00
5:12 PM,41.0,30.2,65,29.98,10.0,NW,4.6,-,N/A,,Overcast,310,2013-01-01 22:12:00
5:33 PM,39.2,28.4,65,29.98,10.0,NW,4.6,-,N/A,,Mostly Cloudy,310,2013-01-01 22:33:00
5:54 PM,39.2,28.4,65,29.99,10.0,West,5.8,-,N/A,,Mostly Cloudy,280,2013-01-01 22:54:00
6:15 PM,41.0,28.4,61,30.00,10.0,WNW,4.6,-,N/A,,Overcast,300,2013-01-01 23:15:00
6:39 PM,39.2,28.4,65,30.00,10.0,NW,6.9,-,N/A,,Overcast,310,2013-01-01 23:39:00
7:00 PM,39.2,28.4,65,30.01,10.0,NW,4.6,-,N/A,,Overcast,310,2013-01-02 00:00:00
7:21 PM,39.2,28.4,65,30.01,10.0,NW,4.6,-,N/A,,Overcast,320,2013-01-02 00:21:00
7:42 PM,39.2,28.4,65,30.01,10.0,NNW,4.6,-,N/A,,Overcast,330,2013-01-02 00:42:00
8:03 PM,39.2,28.4,65,30.01,10.0,NW,3.5,-,N/A,,Overcast,310,2013-01-02 01:03:00
8:24 PM,39.2,28.4,65,30.01,10.0,North,4.6,-,N/A,,Overcast,350,2013-01-02 01:24:00
8:45 PM,39.2,28.4,65,30.01,10.0,NNW,5.8,-,N/A,,Overcast,330,2013-01-02 01:45:00
9:06 PM,37.4,28.4,70,30.02,10.0,NW,5.8,-,N/A,,Overcast,320,2013-01-02 02:06:00
9:27 PM,37.4,28.4,70,30.02,10.0,NNW,4.6,-,N/A,,Overcast,330,2013-01-02 02:27:00
9:48 PM,37.4,28.4,70,30.03,10.0,NNW,6.9,-,N/A,,Overcast,330,2013-01-02 02:48:00
10:09 PM,37.4,28.4,70,30.03,10.0,NNW,4.6,-,N/A,,Overcast,330,2013-01-02 03:09:00
10:30 PM,37.4,28.4,70,30.04,10.0,NW,5.8,-,N/A,,Overcast,320,2013-01-02 03:30:00
10:54 PM,37.4,28.4,70,30.03,10.0,NW,5.8,-,N/A,,Mostly Cloudy,320,2013-01-02 03:54:00
11:15 PM,37.4,28.4,70,30.03,10.0,North,3.5,-,N/A,,Scattered Clouds,360,2013-01-02 04:15:00
11:36 PM,37.4,28.4,70,30.04,10.0,NNW,4.6,-,N/A,,Scattered Clouds,330,2013-01-02 04:36:00
11:57 PM,35.6,26.6,70,30.02,10.0,NNW,3.5,-,N/A,,Clear,340,2013-01-02 04:57:00